Overview Statistics Trail Chart Weather Telemetry Raw packets
 

This is the latest recevied weather packets stored in our database for station/object PU2XNA. If no packets are shown the sender has not sent any weather packets the latest 10 day(s).

<< 13 14 15 16 17 18 19 >>
Time Temp. Humidity Pressure Rain* Wind** Luminosity Snow
1788234303 26.11° C 62% 1006.3 hPa - - - -
1788233403 26.67° C 61% 1005.9 hPa - - - -
1788232502 26.67° C 61% 1006 hPa - - - -
1788231602 26.67° C 62% 1005.9 hPa - - - -
1788230702 26.67° C 61% 1006.3 hPa - - - -
1788229803 27.22° C 61% 1006.4 hPa - - - -
1788228902 26.67° C 62% 1006.2 hPa - - - -
1788228003 27.22° C 60% 1006.4 hPa - - - -
1788227103 27.22° C 58% 1006.5 hPa - - - -
1788226203 26.67° C 58% 1006.5 hPa - - - -
1788225302 26.67° C 58% 1006.6 hPa - - - -
1788224402 26.67° C 58% 1006.5 hPa - - - -
1788223502 26.67° C 61% 1006.3 hPa - - - -
1788222603 27.22° C 60% 1006.2 hPa - - - -
1788221702 27.78° C 58% 1006.2 hPa - - - -
1788220802 28.33° C 57% 1006.2 hPa - - - -
1788219902 28.33° C 56% 1006.1 hPa - - - -
1788219002 28.89° C 55% 1006.1 hPa - - - -
1788218104 29.44° C 54% 1006 hPa - - - -
1788217203 29.44° C 52% 1006 hPa - - - -
1788216302 30° C 51% 1005.9 hPa - - - -
1788215402 30.56° C 49% 1005.9 hPa - - - -
1788214504 30.56° C 45% 1005.9 hPa - - - -
1788213603 31.11° C 44% 1006 hPa - - - -
1788212702 31.11° C 43% 1005.8 hPa - - - -

* Rain since midnight (hover to see other rain measurements)
** Current wind speed in m/s (hover to see current wind gust speed)